TimeCDT,TemperatureF,Dew PointF,Humidity,Sea Level PressureIn,VisibilityMPH,Wind Direction,Wind SpeedMPH,Gust SpeedMPH,PrecipitationIn,Events,Conditions,WindDirDegrees,DateUTC
12:13 AM,29.3,25.5,86,29.81,2.5,NNW,11.5,-,N/A,Snow,Light Snow,340,2014-03-19 05:13:00
12:31 AM,29.1,25.5,86,29.81,2.0,NNW,11.5,-,N/A,Snow,Light Snow,340,2014-03-19 05:31:00
12:52 AM,28.9,25.3,86,29.81,3.0,NNW,12.7,16.1,N/A,Snow,Light Snow,340,2014-03-19 05:52:00
1:13 AM,28.8,25.2,86,29.80,3.0,NNW,11.5,16.1,N/A,Snow,Light Snow,340,2014-03-19 06:13:00
1:32 AM,28.4,24.8,86,29.81,4.0,NNW,10.4,-,N/A,Snow,Light Snow,330,2014-03-19 06:32:00
1:52 AM,28.0,23.9,84,29.81,7.0,NNW,10.4,-,N/A,,Overcast,340,2014-03-19 06:52:00
2:13 AM,27.5,23.2,84,29.81,10.0,NNW,11.5,-,N/A,,Mostly Cloudy,330,2014-03-19 07:13:00
2:31 AM,27.5,23.0,83,29.81,10.0,NNW,10.4,-,N/A,,Mostly Cloudy,330,2014-03-19 07:31:00
2:53 AM,27.9,22.8,81,29.81,10.0,NNW,11.5,-,N/A,,Overcast,330,2014-03-19 07:53:00
3:11 AM,28.0,22.8,81,29.80,10.0,NNW,11.5,-,N/A,,Overcast,330,2014-03-19 08:11:00
3:31 AM,28.2,23.0,81,29.80,10.0,NNW,11.5,-,N/A,,Overcast,330,2014-03-19 08:31:00
3:53 AM,28.4,23.0,80,29.80,10.0,NNW,11.5,18.4,N/A,,Overcast,330,2014-03-19 08:53:00
4:08 AM,28.2,22.8,80,29.80,10.0,NW,12.7,-,N/A,,Overcast,320,2014-03-19 09:08:00
4:33 AM,28.4,22.8,80,29.81,10.0,NW,11.5,-,N/A,,Overcast,320,2014-03-19 09:33:00
4:52 AM,28.4,22.8,80,29.82,10.0,NNW,11.5,17.3,N/A,,Overcast,330,2014-03-19 09:52:00
5:12 AM,28.2,22.5,79,29.83,10.0,NNW,8.1,-,N/A,,Overcast,330,2014-03-19 10:12:00
5:33 AM,28.0,22.5,80,29.83,10.0,NW,8.1,-,N/A,,Overcast,320,2014-03-19 10:33:00
5:52 AM,27.9,22.5,80,29.84,10.0,NW,8.1,-,N/A,,Overcast,310,2014-03-19 10:52:00
6:10 AM,28.2,22.8,80,29.85,10.0,NW,8.1,-,N/A,,Overcast,320,2014-03-19 11:10:00
6:33 AM,28.4,23.0,80,29.86,10.0,NW,8.1,-,N/A,,Overcast,320,2014-03-19 11:33:00
6:52 AM,28.9,23.0,78,29.86,10.0,NW,9.2,-,N/A,,Overcast,320,2014-03-19 11:52:00
7:13 AM,29.3,23.0,77,29.86,10.0,NW,9.2,-,N/A,,Overcast,320,2014-03-19 12:13:00
7:33 AM,29.3,23.4,78,29.87,10.0,NW,8.1,-,N/A,,Overcast,320,2014-03-19 12:33:00
7:53 AM,29.3,23.9,80,29.87,10.0,NW,8.1,-,N/A,,Overcast,310,2014-03-19 12:53:00
8:13 AM,29.7,24.6,81,29.87,7.0,NW,6.9,-,N/A,,Overcast,310,2014-03-19 13:13:00
8:32 AM,30.0,24.6,80,29.88,7.0,WNW,8.1,-,N/A,,Overcast,300,2014-03-19 13:32:00
8:53 AM,30.6,24.4,78,29.88,7.0,WNW,8.1,-,N/A,,Overcast,300,2014-03-19 13:53:00
9:13 AM,31.1,24.4,76,29.89,10.0,WNW,9.2,-,N/A,,Overcast,300,2014-03-19 14:13:00
9:32 AM,31.8,23.5,71,29.90,10.0,NW,11.5,16.1,N/A,,Overcast,310,2014-03-19 14:32:00
9:53 AM,32.0,22.1,67,29.90,10.0,NW,12.7,-,N/A,,Overcast,320,2014-03-19 14:53:00
10:13 AM,32.2,21.2,64,29.91,10.0,NNW,12.7,19.6,N/A,,Overcast,330,2014-03-19 15:13:00
10:32 AM,32.4,21.2,63,29.91,10.0,NW,10.4,-,N/A,,Overcast,320,2014-03-19 15:32:00
10:53 AM,32.9,22.1,65,29.92,10.0,WNW,10.4,-,N/A,,Overcast,300,2014-03-19 15:53:00
11:13 AM,33.1,22.5,65,29.92,10.0,WNW,9.2,-,N/A,,Overcast,300,2014-03-19 16:13:00
11:33 AM,33.3,22.3,64,29.92,10.0,NW,9.2,-,N/A,,Overcast,310,2014-03-19 16:33:00
11:52 AM,33.8,22.5,63,29.92,10.0,WNW,12.7,-,N/A,,Overcast,300,2014-03-19 16:52:00
12:13 PM,34.2,23.0,64,29.93,10.0,WNW,11.5,-,N/A,,Overcast,300,2014-03-19 17:13:00
12:33 PM,34.0,25.5,71,29.93,10.0,West,15.0,-,N/A,,Overcast,280,2014-03-19 17:33:00
12:52 PM,34.2,26.6,74,29.93,10.0,West,11.5,-,N/A,,Overcast,280,2014-03-19 17:52:00
1:13 PM,34.3,26.6,73,29.93,10.0,West,12.7,19.6,N/A,,Overcast,270,2014-03-19 18:13:00
1:33 PM,34.5,26.8,73,29.93,10.0,West,10.4,-,N/A,,Overcast,270,2014-03-19 18:33:00
1:52 PM,35.1,27.0,72,29.93,10.0,West,13.8,-,N/A,,Overcast,270,2014-03-19 18:52:00
2:13 PM,34.5,26.4,72,29.93,10.0,West,10.4,16.1,N/A,,Overcast,260,2014-03-19 19:13:00
2:33 PM,34.5,26.2,72,29.93,10.0,West,12.7,-,N/A,,Overcast,270,2014-03-19 19:33:00
2:52 PM,34.9,26.4,71,29.93,10.0,West,12.7,17.3,N/A,,Scattered Clouds,270,2014-03-19 19:52:00
3:13 PM,35.6,26.8,70,29.93,10.0,WNW,11.5,-,N/A,,Clear,290,2014-03-19 20:13:00
3:33 PM,35.2,25.7,68,29.93,10.0,West,13.8,18.4,N/A,,Scattered Clouds,280,2014-03-19 20:33:00
3:52 PM,35.8,26.8,70,29.93,10.0,West,13.8,-,N/A,,Mostly Cloudy,280,2014-03-19 20:52:00
4:13 PM,36.5,26.6,67,29.93,10.0,WNW,12.7,18.4,N/A,,Mostly Cloudy,290,2014-03-19 21:13:00
4:33 PM,36.7,26.2,66,29.93,10.0,West,16.1,-,N/A,,Mostly Cloudy,270,2014-03-19 21:33:00
4:53 PM,36.1,26.2,67,29.93,10.0,WNW,11.5,-,N/A,,Scattered Clouds,290,2014-03-19 21:53:00
5:13 PM,36.1,26.1,67,29.94,10.0,West,15.0,20.7,N/A,,Mostly Cloudy,280,2014-03-19 22:13:00
5:33 PM,35.2,25.5,68,29.94,10.0,West,16.1,-,N/A,,Scattered Clouds,270,2014-03-19 22:33:00
5:53 PM,35.6,25.7,67,29.95,10.0,West,15.0,-,N/A,,Clear,280,2014-03-19 22:53:00
6:12 PM,35.6,26.4,69,29.95,10.0,West,16.1,-,N/A,,Scattered Clouds,270,2014-03-19 23:12:00
6:33 PM,35.1,26.1,70,29.96,10.0,West,11.5,-,N/A,,Mostly Cloudy,270,2014-03-19 23:33:00
6:53 PM,34.3,25.7,71,29.96,10.0,West,9.2,-,N/A,,Scattered Clouds,280,2014-03-19 23:53:00
7:12 PM,34.0,25.9,72,29.96,10.0,West,6.9,-,N/A,,Clear,280,2014-03-20 00:12:00
7:33 PM,33.8,26.2,74,29.96,10.0,West,5.8,-,N/A,,Scattered Clouds,280,2014-03-20 00:33:00
7:53 PM,33.3,25.7,74,29.96,10.0,West,4.6,-,N/A,,Mostly Cloudy,270,2014-03-20 00:53:00
8:13 PM,33.4,26.4,75,29.97,10.0,West,4.6,-,N/A,,Overcast,280,2014-03-20 01:13:00
8:32 PM,33.4,26.8,77,29.97,10.0,West,4.6,-,N/A,,Overcast,270,2014-03-20 01:32:00
8:53 PM,33.8,26.2,74,29.97,10.0,WSW,3.5,-,N/A,,Overcast,250,2014-03-20 01:53:00
9:12 PM,33.3,27.1,78,29.98,10.0,SW,3.5,-,N/A,,Overcast,230,2014-03-20 02:12:00
9:32 PM,33.3,27.5,79,29.97,10.0,Calm,Calm,-,N/A,,Overcast,0,2014-03-20 02:32:00
9:52 PM,32.9,28.4,84,29.97,10.0,WSW,4.6,-,N/A,,Overcast,240,2014-03-20 02:52:00
10:13 PM,32.4,28.9,87,29.97,10.0,WSW,3.5,-,N/A,,Overcast,250,2014-03-20 03:13:00
10:32 PM,32.4,28.9,87,29.97,10.0,West,3.5,-,N/A,,Overcast,260,2014-03-20 03:32:00
10:52 PM,32.2,28.9,88,29.97,10.0,West,3.5,-,N/A,,Overcast,270,2014-03-20 03:52:00
11:13 PM,32.2,28.9,88,29.98,10.0,Calm,Calm,-,N/A,,Overcast,0,2014-03-20 04:13:00
11:32 PM,32.0,28.8,88,29.98,10.0,Calm,Calm,-,N/A,,Mostly Cloudy,0,2014-03-20 04:32:00
11:52 PM,32.0,28.6,87,29.97,10.0,Calm,Calm,-,N/A,,Mostly Cloudy,0,2014-03-20 04:52:00